Погода в Могсохоне

Россия / Республика Бурятия     51°53′08″N   110°19′29″E
темп.,
°C
ветер,
м/с
пор.,
м/с
влажн.,
%
обл.,
%
осадки,
мм/ч
давл.,
гПа
погр.,
м
27 февраля, сб
сб2723:00−13зюз1197100 0.7 101426
02:00−13з4995100 1.5 1015531
05:00−16з61386100 0.1 1019454
08:00−20з5129097 0.1 1024391
11:00−16зсз711740 0.0 1027988
14:00−14зсз811631 0.0 10281622
17:00−17зсз596849 0.0 10311308
20:00−23зсз238246 0.0 103526
28 февраля, вс
вс2823:00−26зсз128662 0.0 103820
02:00−28з129431 0.0 103919
05:00−29з12980 0.0 104019
08:00−29зюз22982 0.0 104221
11:00−21зюз258134 0.0 1040346
14:00−17з366017 0.0 10381242
17:00−17зсз367381 0.0 1038812
20:00−24з118764 0.0 104020
1 марта, пн
пн123:00−25ююз119319 0.0 104120
02:00−24ююз119459 0.0 104020
05:00−26ю119192 0.0 103920
08:00−27в119168 0.0 103819
11:00−18ююз117814 0.0 1033283
14:00−15юз237515 0.0 1029465
17:00−15юз138446 0.0 1026271
20:00−21юв119429 0.0 102720
2 марта, вт
вт223:00−23вюв119723 0.0 102520
02:00−22вюв119459 0.0 102320
05:00−23вюв119578 0.0 102020
08:00−24ююз009547 0.0 101920
11:00−16юз228020 0.0 1014264
14:00−11зюз247741 0.0 1010376
17:00−10зюз2586100 0.0 1008297
20:00−14зюз2290100 0.0 101124
3 марта, ср
ср323:00−16зюз229455 0.0 101232
02:00−18зюз239842 0.0 101256
05:00−17зюз369887 0.0 1012123
08:00−16з239693 0.0 101254
11:00−10з61278100 0.0 1010915
14:00−9з71176100 0.0 10091283
17:00−10зсз51076100 0.1 10101176
20:00−16зсз338394 0.1 101465